This demonstration page uses our WeatherBlox Daily Observations layout. Learn more.

41.55636, -103.73856

Hourly Observations for December 5, 2015

Temp ( °F °C ) Dew Point ( °F °C ) Humidity (%) Winds ( mph kmh ) Pressure ( in mb ) Visibility ( mi km ) Precip ( " mm )
12:53 am 00:53 Clear 30 -1 25 -4 80 80 N 7 11 30.18 1022 10 16.09344 0 0
1:53 am 01:53 Clear 32 0 27 -3 80 80 Calm 30.21 1023 10 16.09344 0 0
2:53 am 02:53 Mostly Clear 30 -1 27 -3 86 86 NW 5 7 30.24 1024 10 16.09344 0 0
3:53 am 03:53 Mostly Clear 34 1 25 -4 70 70 NNW 8 13 30.21 1023 10 16.09344 0 0
4:53 am 04:53 Mostly Cloudy 36 2 25 -4 65 65 WNW 6 9 30.21 1023 10 16.09344 0 0
5:53 am 05:53 Cloudy 37 3 23 -5 56 56 WNW 15 24 30.21 1023 10 16.09344 0 0
6:53 am 06:53 Cloudy 36 2 25 -4 65 65 NW 10 17 30.21 1023 10 16.09344 0 0
7:53 am 07:53 Cloudy 37 3 25 -4 60 60 NW 8 13 30.24 1024 10 16.09344 0 0
8:53 am 08:53 Mostly Sunny 37 3 25 -4 60 60 NW 7 11 30.27 1025 10 16.09344 0 0
9:53 am 09:53 Sunny 43 6 27 -3 53 53 WNW 7 11 30.24 1024 10 16.09344 0 0
10:53 am 10:53 Sunny 43 6 25 -4 49 49 WNW 12 19 30.24 1024 10 16.09344 0 0
11:53 am 11:53 Sunny 48 9 19 -7 32 32 NW 14 22 30.21 1023 10 16.09344 0 0
12:53 pm 12:53 Sunny 50 10 19 -7 30 30 WNW 15 24 30.18 1022 10 16.09344 0 0
1:53 pm 13:53 Sunny 52 11 21 -6 30 30 NNE 17 28 30.18 1022 10 16.09344 0 0
2:53 pm 14:53 Sunny 52 11 21 -6 30 30 N 9 15 30.21 1023 10 16.09344 0 0
3:53 pm 15:53 Sunny 46 8 21 -6 37 37 N 10 17 30.33 1027 10 16.09344 0 0
4:53 pm 16:53 Clear 39 4 21 -6 48 48 N 5 7 30.42 1030 10 16.09344 0 0
5:53 pm 17:53 Partly Cloudy 34 1 21 -6 60 60 WNW 3 6 30.48 1032 10 16.09344 0 0
6:53 pm 18:53 Mostly Clear 32 0 21 -6 64 64 NW 6 9 30.48 1032 10 16.09344 0 0
7:53 pm 19:53 Clear 34 1 21 -6 60 60 WNW 7 11 30.5 1033 10 16.09344 0 0
8:53 pm 20:53 Clear 28 -2 19 -7 69 69 NW 7 11 30.59 1036 10 16.09344 0 0
9:53 pm 21:53 Clear 25 -4 19 -7 80 80 NNW 8 13 30.62 1037 10 16.09344 0 0
10:53 pm 22:53 Clear 25 -4 18 -8 74 74 NNW 7 11 30.62 1037 10 16.09344 0 0
11:53 pm 23:53 Clear 25 -4 18 -8 74 74 NNW 7 11 30.62 1037 10 16.09344 0 0

Powered by AerisWeather